Theta_e
313 313 313 313 315 321 325 327 324 323 324 318 319 319 320 324 324 324 325 324 327 331 333 333 332 330 329 337 346 345 345 350 351 349 349 353 350 349 351 349 350 350 350 345 333 331 332 330 330 332 335 336 337 337 336 336 335 335 335 333 325 316 312 310 312 313 314 312 312 315 317 319 321 324 328 334 337 339 340 340 340 340 340 339 338 337 337 336 334 333 332 330 329 326 323 320 317
313 316 316 316 319 322 325 327 323 321 319 316 318 320 322 325 325 324 325 325 329 332 331 331 332 332 330 337 345 346 346 350 352 354 354 351 352 352 351 350 349 348 347 342 333 332 332 330 330 331 333 334 335 336 335 335 334 335 334 333 324 315 311 310 312 313 314 313 312 314 316 317 319 322 329 335 337 338 340 339 339 339 339 337 337 337 335 332 330 329 326 323 320 317 314 311 310
313 318 320 319 321 323 325 325 320 317 316 314 317 322 324 324 325 324 325 326 327 328 329 329 330 331 329 334 342 345 347 349 351 352 352 351 353 352 350 350 349 348 344 337 333 332 332 331 330 329 330 332 332 333 334 334 334 334 333 332 323 313 311 310 312 314 315 314 313 313 315 316 318 321 326 333 336 337 339 339 338 337 337 336 335 334 332 329 327 325 321 316 312 310 309 309 308
312 315 319 321 323 323 324 322 319 316 314 314 315 321 325 323 325 324 326 326 325 325 327 328 329 331 336 338 341 343 345 348 350 350 351 352 353 352 350 349 348 348 343 338 336 333 332 331 330 329 328 329 329 330 331 331 332 333 332 331 321 311 310 310 312 313 315 314 313 312 314 316 317 319 323 329 333 335 336 337 337 337 335 333 331 330 327 326 325 321 315 310 308 309 308 308 308
312 316 319 320 323 323 324 323 321 317 315 316 317 321 325 323 324 324 325 324 325 325 326 329 329 333 342 343 341 341 341 344 347 349 351 352 354 351 350 350 348 348 344 342 341 336 332 332 330 330 328 327 326 327 328 327 328 330 330 328 318 310 310 310 312 313 314 315 314 313 312 315 316 317 319 324 328 330 333 335 335 334 332 331 329 326 325 323 320 315 310 309 309 308 308 308 308
314 318 320 319 320 322 321 320 320 318 319 321 319 322 324 324 325 324 325 324 325 326 326 328 330 339 346 345 344 345 344 343 344 348 350 352 354 351 350 350 348 348 345 344 343 337 332 333 332 331 329 326 325 324 324 324 324 326 327 326 316 310 310 310 312 313 314 315 315 314 312 313 315 317 318 320 322 326 330 331 330 331 331 330 327 324 322 318 313 310 309 309 309 309 308 308 308
316 319 320 320 320 320 319 317 317 318 321 322 321 323 324 324 325 324 323 324 324 325 327 328 332 340 344 344 347 350 348 343 345 349 351 353 353 351 350 349 348 347 345 345 344 338 333 333 333 333 330 326 323 321 320 321 322 324 325 322 313 310 310 310 311 313 314 315 315 315 313 312 313 316 317 318 319 321 325 326 327 328 327 325 322 320 318 312 310 309 309 309 309 309 309 308 309
317 319 320 321 321 319 317 315 317 318 320 322 323 324 324 324 324 323 323 323 323 325 327 328 330 335 342 346 349 351 349 346 348 350 352 353 353 351 349 349 348 346 346 345 345 340 333 334 333 333 331 326 322 319 319 320 322 323 322 319 312 310 310 310 311 312 314 314 315 314 314 313 312 314 316 318 318 319 321 323 323 323 321 319 317 316 313 310 310 309 309 310 310 310 309 309 309
317 317 319 319 320 321 318 317 317 319 320 321 322 323 325 325 323 323 323 323 324 327 328 329 329 334 344 349 350 350 351 352 351 351 352 352 352 351 349 349 347 346 346 345 345 341 333 334 334 334 332 324 320 318 318 319 321 320 318 316 312 310 310 310 310 312 313 314 315 314 314 314 313 312 315 317 318 318 320 321 320 318 317 315 314 313 312 311 309 309 310 310 310 310 310 310 310
317 318 318 318 319 318 316 317 319 320 321 321 322 323 324 323 323 323 322 323 323 326 327 329 328 334 346 350 350 351 352 352 352 352 353 352 351 351 349 349 348 347 346 345 346 341 334 334 334 334 331 322 318 317 318 318 319 317 316 315 312 310 310 310 310 311 312 313 314 314 314 314 313 312 312 316 317 319 319 319 318 317 315 313 313 313 312 310 310 310 310 310 310 311 311 311 311
318 317 318 317 316 315 314 316 318 320 321 322 323 323 324 323 323 323 323 322 323 325 326 328 327 336 349 351 352 351 352 352 351 353 353 352 352 351 350 349 348 347 347 346 347 341 333 334 334 334 329 320 317 316 317 318 317 317 315 314 312 310 310 310 311 311 311 313 313 314 314 314 313 312 312 314 317 319 319 319 318 316 315 314 313 313 313 311 311 310 310 310 310 311 311 312 312
317 318 318 316 315 314 316 317 318 321 322 322 323 324 324 323 321 321 322 322 324 324 325 327 327 334 345 351 353 351 352 352 352 353 354 353 353 352 350 349 348 348 347 347 347 340 333 334 334 333 327 319 316 317 318 318 317 316 315 314 313 311 310 310 310 310 311 312 313 313 313 314 313 313 312 312 315 318 319 320 319 318 315 315 314 315 314 312 312 311 310 310 310 311 311 312 312
317 318 318 317 317 316 316 316 319 320 320 322 322 324 323 322 322 321 322 323 323 325 325 325 326 335 346 352 353 352 352 353 353 353 354 354 354 352 350 349 348 349 348 349 346 337 334 334 334 334 326 317 317 317 318 318 316 315 314 314 313 312 311 310 310 310 311 312 312 312 313 313 313 312 313 312 313 316 318 320 320 319 316 315 316 316 315 313 313 313 310 310 310 311 311 312 312
316 318 318 318 319 319 318 317 318 318 319 323 322 322 322 321 322 322 323 322 322 324 324 326 331 340 349 353 352 352 353 353 353 353 354 353 353 353 351 350 349 349 349 350 343 336 335 334 334 334 326 318 317 318 319 318 317 316 315 314 313 313 312 311 311 311 311 312 312 312 312 312 313 313 313 313 312 314 317 319 321 320 318 317 317 317 316 314 314 314 312 310 310 310 311 312 313
316 318 318 317 318 318 319 318 318 317 319 322 321 322 322 321 322 322 322 322 323 324 324 328 334 338 344 348 351 353 353 353 354 353 354 353 353 353 352 351 350 350 350 349 344 336 337 335 334 334 327 319 317 317 318 318 317 316 315 314 314 314 313 312 312 312 312 312 312 311 311 311 312 312 312 313 312 313 315 318 320 321 319 319 318 317 317 317 316 316 314 312 311 312 313 314 315
316 317 318 317 316 316 318 320 319 317 320 322 321 322 322 321 322 322 323 323 324 327 326 329 336 341 340 340 349 352 352 352 353 353 353 353 353 353 352 351 350 351 350 349 347 339 337 336 335 334 327 320 318 317 317 316 316 316 315 314 313 313 313 313 313 313 313 312 312 311 311 311 311 312 312 313 313 312 314 316 319 321 321 320 319 318 318 319 318 318 318 316 315 315 316 316 317
317 317 317 316 315 316 318 320 319 318 320 322 322 323 321 322 322 322 324 323 326 330 330 335 344 348 346 345 349 350 352 352 353 353 354 353 353 352 351 351 350 351 350 349 348 343 340 338 335 333 327 320 319 317 316 316 316 316 315 314 314 314 314 315 315 314 314 313 313 312 312 311 310 311 311 312 313 312 313 315 317 320 322 322 321 320 320 321 321 321 320 319 319 318 318 319 320
317 317 316 316 317 318 319 320 321 321 321 322 322 323 322 321 323 324 325 324 328 333 334 340 345 350 351 352 352 351 351 351 353 353 353 353 353 353 352 351 350 350 350 349 347 345 344 342 337 331 326 321 319 317 317 317 317 318 318 319 318 318 319 320 319 319 318 317 316 315 314 315 317 319 316 313 312 312 313 314 315 318 321 322 323 323 322 323 324 324 322 321 321 320 320 320 321
317 318 316 316 318 320 320 321 321 321 321 322 322 322 321 323 325 327 327 326 330 334 336 339 342 347 352 352 352 352 352 352 353 352 353 353 353 353 352 351 350 350 350 349 347 346 345 345 341 335 329 322 320 320 320 321 323 324 325 326 325 323 324 324 325 325 326 325 324 322 322 328 332 333 330 323 317 312 312 314 315 317 319 321 323 324 324 325 326 325 324 322 321 321 320 319 320
317 318 317 317 318 320 321 322 321 322 321 322 321 322 321 323 328 329 328 328 331 334 334 338 339 343 350 352 352 352 352 352 352 351 352 352 352 353 352 352 351 350 350 349 348 346 345 344 342 341 335 326 325 326 326 326 327 329 330 329 329 329 328 330 331 331 332 331 330 330 333 337 337 337 336 335 330 320 314 313 315 318 318 319 322 324 325 326 327 326 325 324 323 322 319 320 321
318 317 318 318 319 319 320 321 321 321 321 321 321 321 321 324 329 330 329 327 330 333 333 338 340 342 348 351 351 352 352 352 352 352 351 351 352 352 352 352 351 350 350 349 348 345 344 343 342 342 337 332 335 335 333 332 331 334 336 334 333 333 333 335 334 333 335 334 333 334 337 338 337 337 337 337 337 333 327 319 312 316 318 318 320 322 323 325 326 326 326 325 324 324 325 328 330
318 318 318 319 319 319 320 321 320 321 320 321 321 321 321 323 328 330 329 328 332 336 334 339 341 342 345 348 350 351 352 352 352 352 351 351 351 351 352 351 351 350 349 348 346 344 343 342 341 343 340 338 339 338 337 337 335 339 340 339 338 337 336 335 332 333 337 336 336 336 337 338 339 338 335 334 336 337 337 332 318 312 314 317 319 320 321 322 324 324 326 325 325 330 334 335 335
317 318 319 318 319 319 320 320 320 320 320 320 321 321 321 322 326 327 327 330 337 338 338 342 344 344 345 347 350 351 351 352 351 350 350 350 350 351 350 350 350 348 346 345 343 343 343 342 342 344 342 339 340 339 338 337 337 339 339 339 339 338 336 335 334 335 336 337 337 338 337 338 337 336 332 332 335 333 335 336 328 319 315 314 315 319 320 319 322 323 325 326 327 333 337 337 335
317 318 319 319 319 319 320 320 320 319 319 320 320 321 321 321 323 324 325 331 339 340 339 342 343 345 346 346 349 350 350 350 349 349 349 348 348 349 349 349 347 344 341 341 343 342 339 341 342 343 342 339 339 336 335 338 337 337 337 337 337 336 336 336 337 336 336 336 337 338 337 336 335 333 332 333 334 330 331 334 332 331 327 320 315 317 321 321 319 322 326 326 328 333 336 337 334
317 318 318 319 319 320 319 320 319 319 319 319 320 321 321 321 322 322 323 329 337 339 339 341 342 343 345 346 349 349 349 348 348 349 348 347 348 347 347 346 343 342 342 340 342 341 337 340 342 342 341 339 338 335 337 340 339 339 338 338 338 337 336 336 337 336 336 336 335 335 335 335 333 333 332 334 334 332 333 334 332 333 333 331 324 320 327 327 320 322 329 328 331 334 334 335 332
318 317 318 318 319 320 319 320 319 319 319 319 320 320 320 321 320 322 323 328 334 337 338 339 341 343 346 348 348 348 348 348 348 348 347 346 347 347 346 344 342 343 342 338 338 340 340 340 342 341 340 338 339 338 339 340 339 337 336 337 337 336 335 336 337 336 335 335 334 335 335 335 334 333 332 334 335 332 333 334 331 330 331 332 330 327 331 333 325 325 332 332 334 336 333 333 331
318 318 318 318 319 319 319 319 319 319 319 320 319 319 320 321 320 320 323 328 332 334 336 336 338 342 346 348 349 348 347 348 348 347 347 346 346 346 345 344 344 341 339 339 339 339 339 339 340 340 339 339 339 338 337 337 335 333 335 337 335 335 335 335 336 336 334 334 333 334 335 335 334 333 331 332 335 333 331 332 331 332 332 333 332 330 332 334 331 328 333 335 335 336 334 332 329
318 319 318 318 318 318 319 319 319 319 318 319 320 319 320 320 320 320 324 330 331 333 335 335 337 340 344 347 348 348 347 348 348 347 347 346 345 345 344 344 343 340 338 339 341 339 337 338 339 338 338 338 338 335 334 335 332 332 337 336 334 335 334 333 335 335 334 334 334 334 335 335 333 332 331 331 333 333 332 331 332 333 334 334 333 332 331 333 334 330 332 335 334 336 336 334 332
318 318 318 318 318 318 318 318 319 318 318 319 320 319 318 319 320 320 325 328 330 332 332 335 339 339 341 345 347 347 347 348 347 347 347 346 344 344 345 343 341 340 340 338 339 338 337 337 336 336 336 336 335 334 333 333 332 334 336 336 335 335 334 335 335 334 334 334 334 334 334 334 333 332 332 331 331 333 333 333 334 333 333 333 333 332 331 331 334 332 331 334 334 335 336 335 334
316 317 317 317 317 316 317 317 318 318 319 320 319 316 317 319 320 320 323 326 328 330 332 335 339 339 339 342 345 344 345 346 347 347 346 346 344 344 344 341 338 339 339 335 334 335 336 336 335 335 335 335 335 334 333 334 334 335 336 336 335 336 336 336 336 335 335 334 334 334 334 334 333 333 332 331 331 331 333 333 333 334 334 332 332 332 331 330 333 333 331 332 332 335 335 335 334
316 316 316 316 314 315 318 317 318 318 318 320 319 314 316 320 320 320 322 324 326 329 334 337 337 338 338 338 340 340 343 345 345 345 345 346 345 344 342 339 335 336 336 334 333 334 334 334 334 334 334 334 335 334 333 333 333 334 336 336 336 336 337 337 337 337 336 335 334 335 335 335 335 334 332 332 332 331 332 333 332 333 333 332 332 333 332 331 334 334 331 330 331 333 333 334 335
316 314 314 315 313 314 318 318 317 318 318 321 319 315 316 320 320 320 322 324 326 328 334 337 337 337 336 334 336 337 340 342 343 344 345 345 345 343 341 338 335 334 335 333 333 334 334 334 334 335 335 335 335 335 334 333 333 335 336 336 336 335 336 337 338 337 337 336 336 336 336 335 334 334 333 333 332 332 333 333 333 332 332 331 332 332 332 333 333 334 333 331 331 332 332 333 334
315 314 312 314 314 313 317 318 318 319 319 319 319 316 317 320 320 321 323 324 326 327 330 336 336 335 334 334 336 336 338 341 342 344 345 345 344 343 340 337 335 334 333 333 332 332 334 334 335 336 336 335 335 335 334 334 334 335 337 336 336 335 335 336 337 337 337 337 337 337 336 335 335 334 334 333 332 332 332 333 333 331 330 329 329 331 332 332 333 334 334 332 331 331 331 333 333
314 314 313 314 315 314 314 317 318 318 318 319 319 318 318 320 320 321 323 323 326 327 326 334 335 333 334 335 335 335 338 340 342 344 344 343 343 343 340 338 337 335 333 332 330 330 332 333 334 335 335 335 335 335 334 334 335 336 337 336 336 336 336 337 336 337 338 338 337 337 337 336 335 334 334 333 331 332 333 333 333 330 328 329 330 331 332 332 333 333 333 332 331 331 330 332 333
314 314 314 313 314 314 314 316 318 318 318 318 318 318 318 319 321 322 324 324 325 324 326 334 334 333 334 334 333 336 339 340 343 344 343 341 342 342 339 338 338 335 333 332 330 330 332 331 332 333 334 334 335 336 335 335 336 337 338 338 337 337 338 337 337 337 337 337 337 336 337 336 335 335 335 333 332 332 333 333 331 329 327 328 330 331 331 331 331 331 331 331 331 330 330 331 332
316 315 314 314 313 314 316 317 319 318 318 319 319 318 318 319 321 322 324 324 324 323 328 334 334 334 336 336 335 339 342 342 343 344 342 340 341 340 338 336 335 335 334 334 331 331 331 332 332 333 333 333 334 334 334 335 337 338 338 339 339 338 337 337 337 337 337 337 336 336 336 335 335 335 335 334 332 332 332 332 330 328 326 326 329 330 330 330 330 330 330 330 329 328 329 330 331
317 317 315 315 313 314 317 318 319 319 317 318 319 318 319 319 322 323 324 325 323 323 331 335 334 334 337 339 341 343 344 343 343 342 341 340 340 340 338 335 335 335 334 334 333 331 331 332 332 333 333 333 333 333 334 336 338 339 339 339 339 339 338 338 338 338 338 337 337 336 335 335 335 335 334 333 333 332 332 331 329 327 326 325 327 329 329 329 329 328 328 328 328 328 328 329 330
316 316 315 315 314 314 318 319 318 319 318 317 319 318 318 320 322 323 324 324 324 323 329 334 334 333 336 339 343 344 343 343 342 340 341 341 340 338 338 338 337 335 336 337 335 333 333 335 335 333 332 332 333 335 337 337 337 338 338 338 338 339 339 339 339 338 338 338 336 336 335 335 335 335 334 332 332 332 331 330 328 327 326 326 326 328 328 328 329 329 328 328 328 329 329 329 330
315 316 315 314 315 316 317 319 319 319 318 317 319 318 318 322 322 323 323 323 324 324 326 330 332 333 336 339 342 344 343 343 343 341 341 343 342 340 338 339 339 338 339 340 338 336 336 337 336 334 333 333 334 335 336 336 335 334 334 333 334 337 339 339 338 338 337 336 336 335 335 335 335 334 333 331 331 331 331 330 329 328 328 327 328 328 328 327 328 330 329 329 329 329 329 329 329
315 315 315 314 316 316 315 318 320 320 318 319 319 317 318 322 323 323 323 324 324 325 327 329 333 336 338 339 342 342 342 342 343 343 343 343 343 342 341 340 340 339 340 340 338 338 337 336 335 334 335 335 334 332 333 333 333 332 331 331 332 334 336 337 336 336 336 336 335 334 334 333 333 332 331 331 331 330 330 330 329 329 328 329 329 329 328 328 328 330 329 329 329 329 329 328 328
316 316 315 315 316 316 316 317 319 319 318 320 318 315 319 323 324 323 323 324 325 327 328 329 335 338 337 338 340 341 342 342 343 343 342 343 343 342 342 342 341 340 339 339 338 338 337 336 336 335 335 334 333 330 331 331 331 331 332 333 334 334 334 336 336 336 336 335 335 333 333 333 332 331 331 331 330 330 330 330 330 330 329 328 329 329 329 328 328 328 329 329 329 329 329 329 329
315 316 317 318 318 318 318 318 318 316 315 318 317 313 318 324 324 323 324 325 326 327 326 330 337 338 337 337 340 341 341 342 342 341 341 342 342 342 341 340 340 339 338 337 337 336 336 336 335 335 334 333 332 331 332 333 333 333 334 334 336 335 336 338 338 336 335 334 333 333 332 332 332 332 332 332 331 331 331 331 330 331 330 329 329 329 329 328 327 327 329 329 329 330 330 330 331
314 316 318 319 319 318 318 318 316 314 313 318 318 314 316 322 323 323 325 325 325 325 323 330 337 338 338 338 339 340 341 341 341 340 340 340 341 341 340 339 338 337 336 336 336 336 336 335 335 335 334 333 333 333 333 334 334 334 334 334 335 336 336 336 337 337 335 333 332 332 332 332 331 331 332 333 332 333 333 331 330 330 331 330 330 330 330 329 328 328 328 329 330 331 331 331 331
314 317 319 318 319 317 318 317 315 315 315 317 318 315 315 319 323 324 325 324 323 324 323 328 336 338 339 338 337 339 340 340 340 340 339 339 340 340 339 338 337 336 336 336 335 335 335 335 334 334 333 334 333 333 333 334 334 333 334 335 335 335 335 335 335 336 335 332 331 332 331 331 330 330 330 331 332 332 333 332 330 330 330 330 329 329 329 329 329 329 329 328 329 331 331 330 329
315 318 318 318 319 317 317 317 315 316 316 314 315 316 314 316 322 324 324 322 322 325 326 330 335 337 337 337 337 338 339 339 338 339 338 338 338 338 337 337 337 337 336 335 335 335 335 335 334 333 334 334 333 332 333 334 334 333 334 335 335 336 336 335 335 335 336 334 333 332 331 331 330 330 329 329 330 331 332 332 331 331 331 330 330 329 329 329 330 331 330 329 329 330 331 330 329
316 318 319 318 318 317 317 317 315 316 317 313 314 315 313 314 318 321 322 322 323 326 330 335 336 336 336 336 336 336 337 337 336 337 337 337 337 337 337 336 336 336 335 335 335 335 335 335 335 335 334 334 333 333 334 334 334 334 335 336 336 336 337 337 337 337 337 335 334 333 332 332 332 330 329 329 330 331 332 332 332 332 332 331 331 331 331 330 330 331 331 330 330 330 330 330 330
317 317 318 317 316 317 317 317 316 315 315 315 314 315 315 314 316 320 322 323 324 328 333 335 335 336 336 335 335 334 334 334 334 334 335 335 335 334 335 335 335 335 335 334 334 334 335 335 335 335 334 334 334 334 334 334 334 335 335 335 336 336 337 337 337 337 336 335 335 334 333 332 332 330 330 330 330 331 332 332 332 332 332 332 332 332 332 331 331 332 331 330 329 329 329 330 330
317 317 316 315 314 315 315 316 317 315 315 315 314 316 315 313 317 322 323 326 328 331 334 335 334 335 334 333 333 333 332 332 332 332 332 332 332 332 332 333 332 333 333 333 333 332 333 333 333 333 332 332 332 333 334 334 334 335 335 335 335 336 336 336 337 336 336 336 335 334 334 334 332 331 330 330 330 330 332 333 333 332 333 333 333 332 332 332 332 332 332 331 329 329 330 330 331
317 316 314 314 312 314 314 313 314 315 314 314 315 317 314 316 325 330 328 332 334 334 334 334 333 332 331 331 331 330 330 330 330 330 330 330 330 330 330 330 330 330 330 330 330 330 330 330 330 331 330 330 330 331 331 332 332 333 334 334 334 334 334 334 335 335 336 336 336 335 334 334 334 333 331 330 331 330 330 332 333 333 332 332 332 333 333 333 332 332 332 331 330 331 331 331 330
315 313 313 313 312 315 315 313 314 314 314 314 316 315 314 324 334 333 331 333 333 334 333 332 331 330 329 328 328 328 328 328 328 328 329 329 328 328 328 328 328 328 328 328 328 328 328 328 328 329 329 329 328 329 329 329 330 331 331 332 332 332 332 333 333 334 335 336 336 335 334 334 334 334 332 331 332 331 330 330 332 331 330 330 332 333 333 332 332 331 331 331 331 331 331 330 328
315 314 315 314 313 315 314 313 313 314 314 313 314 317 321 332 336 332 331 332 332 332 330 330 329 327 327 327 326 326 326 327 327 327 327 327 327 327 327 327 327 327 326 326 327 327 327 327 327 328 328 328 328 328 328 328 329 329 329 330 330 330 330 330 331 333 333 334 334 334 334 333 333 333 333 332 332 332 331 331 332 331 330 330 332 333 333 332 332 332 331 331 331 331 330 329 328
315 315 315 314 315 315 313 314 314 315 315 312 318 327 331 334 333 331 331 331 330 330 328 328 327 327 327 326 326 326 326 326 326 326 326 326 326 326 325 325 325 325 325 325 325 325 325 325 325 326 326 326 327 327 327 327 327 327 328 328 328 328 328 328 329 330 331 331 331 331 332 332 332 332 332 332 332 331 331 332 333 332 332 332 332 332 332 332 332 331 332 331 331 331 330 330 329
315 313 313 315 317 317 315 315 315 316 316 315 325 334 334 334 332 330 329 328 328 328 327 327 327 326 326 325 325 325 325 325 325 325 325 324 324 324 324 324 324 324 324 323 324 324 324 324 324 324 325 325 325 326 326 326 326 326 327 326 327 327 326 327 327 328 329 329 329 330 330 331 332 332 332 331 332 331 331 332 332 332 332 332 332 332 332 332 332 331 332 332 331 331 330 330 330
314 312 314 316 318 318 315 315 314 315 316 317 328 335 333 334 334 331 329 329 328 327 326 327 326 325 325 325 325 324 324 324 324 324 324 323 323 323 322 323 322 323 323 323 323 323 323 323 323 323 324 324 324 324 324 325 326 326 325 325 325 324 324 325 326 327 327 327 328 330 331 331 332 332 332 331 331 331 331 331 330 330 331 331 331 331 331 332 332 331 331 332 331 331 330 330 329
315 314 315 316 315 314 314 315 315 316 316 316 326 334 332 332 333 331 331 330 328 327 325 325 324 324 324 324 324 324 324 324 323 323 322 322 322 321 322 322 322 322 322 322 322 322 322 322 322 322 323 323 323 323 323 324 324 324 324 323 322 323 324 324 325 326 326 327 327 328 330 332 332 332 332 331 331 330 330 330 330 330 330 330 330 330 331 331 331 331 331 332 332 332 332 331 330
316 316 316 315 315 314 314 315 314 315 315 315 324 332 330 329 332 332 331 330 328 327 325 324 324 323 323 323 324 324 323 323 322 321 321 320 321 321 321 321 321 321 321 322 322 321 322 322 322 322 322 322 322 323 323 323 322 322 322 322 322 323 324 324 324 324 325 326 327 328 328 330 331 331 331 331 331 330 329 329 329 329 329 329 329 329 330 331 331 331 332 332 331 332 332 331 331
314 314 313 314 314 314 315 314 313 314 314 315 322 328 329 329 331 331 331 329 327 326 325 324 324 323 323 323 323 323 322 321 321 320 320 320 320 320 320 321 321 321 321 321 321 321 321 321 321 321 321 322 321 322 322 321 321 322 321 321 322 322 323 323 322 322 322 324 326 327 328 328 329 330 331 331 331 331 330 328 327 327 327 327 327 327 327 328 329 330 331 332 331 331 331 331 331
314 313 313 313 313 313 314 314 314 314 314 314 317 325 331 331 330 331 331 329 327 326 325 324 323 323 323 323 323 322 321 320 320 320 320 320 320 320 320 320 320 320 320 321 321 320 321 320 321 321 321 321 320 320 320 321 321 321 321 321 322 321 321 322 322 322 322 322 323 324 325 327 329 330 330 331 330 330 330 328 327 327 326 326 327 327 325 325 326 329 330 331 331 330 331 330 330
Wind_Speed
4 3 5 6 6 8 8 8 6 4 5 7 8 8 10 12 9 8 9 5 1 4 8 5 4 4 6 6 18 19 16 13 9 6 6 10 14 15 10 8 10 14 13 17 21 19 17 16 16 16 16 16 15 15 14 12 11 10 9 8 7 9 12 13 13 12 12 12 11 12 14 15 16 18 18 17 17 16 16 16 16 15 15 15 14 13 12 12 11 10 10 8 7 6 6 6 7
4 4 5 8 6 6 9 7 5 5 6 8 9 9 12 10 5 8 10 4 6 8 6 4 3 2 2 7 20 21 17 18 18 15 14 16 15 14 13 13 11 9 12 21 22 20 19 17 16 16 16 15 15 15 14 12 11 10 9 8 8 10 12 13 13 12 11 12 11 12 13 14 16 18 18 18 16 16 15 15 15 15 14 13 13 12 11 11 10 9 8 7 7 7 7 7 8
4 4 5 9 7 8 9 7 7 7 7 8 8 10 12 9 5 3 2 9 9 8 4 3 2 3 3 4 14 17 11 16 19 18 17 15 14 15 15 15 14 8 11 23 22 20 20 18 17 16 16 15 14 14 13 13 12 11 10 9 9 11 13 14 14 12 11 11 11 11 12 13 15 16 18 18 16 15 15 14 14 14 13 12 12 10 10 10 9 9 9 9 9 9 9 9 9
3 1 3 9 10 10 7 6 7 7 8 8 7 13 13 8 10 7 11 8 6 6 2 3 3 2 6 6 13 16 13 15 16 15 16 13 15 18 16 17 18 11 10 19 19 20 21 18 17 15 15 14 14 14 13 13 12 11 10 9 10 12 14 14 14 13 12 11 11 11 11 13 15 15 16 17 16 15 14 14 13 13 12 12 11 10 10 10 10 9 10 10 11 11 11 12 12
2 1 4 8 8 6 6 5 6 8 8 8 7 13 12 6 6 5 10 3 1 2 2 3 3 7 12 13 12 12 12 15 14 13 14 13 17 19 18 19 18 11 11 17 15 19 21 18 18 15 15 14 14 14 13 13 12 12 11 10 10 13 15 15 15 13 12 11 11 11 11 12 13 14 14 15 15 14 14 14 13 12 11 11 10 10 10 10 10 10 11 11 12 13 13 15 15
1 3 7 10 10 7 6 6 7 9 9 11 9 11 16 9 3 6 5 0 3 1 3 5 4 12 14 14 17 14 10 11 12 13 15 16 19 19 18 17 15 12 15 19 15 18 21 18 17 15 15 14 14 14 14 13 12 12 11 11 11 14 16 15 15 14 13 12 11 11 11 11 12 13 13 14 13 13 14 13 12 11 11 10 9 10 10 10 11 11 12 13 13 14 15 17 18
4 6 9 10 10 8 6 8 9 9 11 14 11 13 17 7 5 2 4 2 3 3 5 8 5 12 11 11 14 15 12 10 14 15 18 19 20 20 17 14 16 16 18 19 14 16 21 19 17 16 14 14 14 14 14 14 13 13 12 12 13 15 16 16 15 14 13 12 11 10 10 11 11 12 12 13 12 13 13 12 12 11 10 10 10 10 11 11 12 13 13 14 15 15 17 18 20
8 10 10 7 6 6 7 9 10 10 11 14 16 16 11 4 5 2 5 1 1 4 7 9 9 5 8 14 12 12 16 15 17 18 20 20 20 21 17 15 18 19 19 18 13 15 21 19 18 16 15 14 14 15 14 14 13 13 12 13 13 14 16 16 15 14 13 12 11 10 10 10 11 12 12 12 12 13 13 12 12 12 11 11 11 11 12 12 13 14 15 15 15 17 18 19 20
11 11 10 8 6 7 8 9 10 10 13 15 17 20 14 5 3 4 6 4 2 4 9 10 9 5 13 19 15 13 16 17 19 19 18 17 20 21 18 16 18 20 19 16 11 15 22 20 18 16 15 15 15 15 15 15 14 13 13 14 13 14 15 15 15 14 13 12 11 10 9 10 10 11 12 11 12 13 13 13 13 12 12 12 12 12 12 13 14 15 15 16 17 18 19 19 20
11 12 9 6 6 8 9 9 10 11 14 14 18 22 14 8 9 9 9 9 8 6 7 11 9 9 19 17 15 13 14 16 17 17 15 16 19 20 19 18 18 21 20 18 12 16 24 21 19 17 15 15 15 16 15 15 14 13 13 13 12 13 14 14 14 13 13 12 11 10 9 9 9 10 11 11 12 12 13 13 13 12 13 13 13 13 13 14 14 14 15 16 18 18 19 19 19
10 11 10 7 7 8 8 8 10 11 13 14 18 18 5 2 6 9 9 11 11 10 10 10 9 14 21 14 14 14 15 15 15 17 16 16 17 18 21 19 19 21 19 18 14 18 24 22 20 17 16 16 16 16 15 14 13 13 13 12 11 11 12 12 13 12 12 12 11 10 10 9 9 9 10 11 12 13 13 13 13 12 13 13 13 13 13 14 13 13 14 15 17 18 18 18 19
9 8 8 7 7 8 9 10 10 11 15 14 11 10 7 6 6 8 9 11 10 11 12 11 10 11 17 11 14 15 17 15 15 16 15 16 16 18 20 20 20 19 17 16 15 21 24 21 20 18 16 16 16 16 14 13 12 12 12 11 10 10 10 11 11 11 11 12 12 10 9 9 9 8 8 9 11 12 14 14 13 12 12 13 12 12 13 13 13 12 13 14 16 17 18 18 18
10 8 7 7 8 8 10 10 10 11 11 8 3 2 6 7 6 8 9 11 11 9 10 13 12 9 14 12 15 16 17 16 15 15 15 16 15 17 19 20 20 17 16 14 15 23 23 21 20 18 17 16 16 15 13 12 12 11 10 10 9 9 9 10 10 10 10 11 11 10 10 9 9 8 8 8 10 12 13 14 13 12 12 12 12 12 12 13 13 12 13 14 15 16 17 17 17
12 11 7 7 8 9 10 9 11 9 8 6 2 9 10 7 4 9 11 11 11 12 11 11 8 12 15 13 13 15 18 16 16 15 15 16 15 16 18 20 20 16 15 12 15 23 22 20 20 18 17 17 17 15 13 12 11 10 9 9 9 9 9 10 10 9 9 9 10 10 10 9 8 8 8 7 8 10 13 14 14 13 13 13 12 12 12 13 13 12 13 13 14 15 16 17 17
13 13 8 7 7 8 9 8 11 9 7 2 6 11 11 8 7 11 14 13 12 14 14 13 7 7 12 9 12 18 21 19 17 16 16 16 14 14 16 18 18 16 15 13 16 22 21 20 20 18 17 17 17 16 14 12 10 10 9 9 10 10 10 10 10 9 9 9 8 9 9 9 9 8 8 8 7 9 12 14 14 14 14 14 13 12 12 13 13 13 13 13 14 15 16 16 17
14 13 6 6 8 9 8 9 10 9 6 6 5 5 6 7 11 11 13 15 8 8 9 11 8 9 7 6 17 25 23 21 18 17 17 17 15 15 16 16 16 16 16 14 15 20 21 20 20 18 17 17 17 16 14 13 12 11 10 11 11 11 11 11 10 10 9 8 8 8 8 9 9 9 8 9 8 8 11 14 15 15 14 14 14 13 12 13 13 13 13 13 13 14 14 15 16
14 11 7 7 8 9 8 10 6 7 8 7 3 6 6 8 11 11 13 18 10 11 9 11 18 20 17 11 24 27 23 23 19 18 18 17 16 16 16 16 17 15 16 15 13 17 19 19 20 18 17 17 16 15 14 13 13 12 12 12 12 12 11 12 11 11 9 8 7 7 7 8 9 9 9 9 10 10 11 13 15 15 15 15 14 13 13 13 13 13 14 13 13 13 13 13 14
12 7 7 8 7 9 9 12 7 7 6 6 4 2 6 9 12 11 12 15 12 12 13 17 23 22 22 22 25 24 23 23 20 19 18 18 17 18 17 16 17 14 15 16 14 16 18 17 17 18 16 16 15 14 13 14 14 13 13 13 13 13 12 12 12 10 8 7 6 5 4 3 3 4 5 7 9 11 11 12 15 15 15 15 15 14 13 13 13 12 13 13 12 12 12 11 12
11 6 7 8 8 10 13 14 7 4 5 5 4 3 8 8 10 12 10 12 13 11 12 14 18 20 21 20 21 21 20 20 20 19 18 18 17 18 18 17 17 15 15 16 17 19 20 16 15 15 14 14 14 12 12 12 12 12 12 13 13 13 13 12 11 9 7 6 5 4 2 1 1 2 3 3 6 9 11 11 13 15 15 15 15 14 14 13 13 12 12 13 12 11 11 11 10
13 9 7 9 11 13 16 14 5 6 9 3 1 4 9 6 6 11 11 12 13 10 10 13 15 18 19 17 16 17 17 18 20 19 18 17 16 17 17 17 17 16 14 14 17 19 20 19 16 14 11 12 10 8 9 9 10 10 10 10 11 11 12 11 9 6 6 6 5 4 3 2 3 6 3 3 6 8 9 11 12 13 15 16 15 15 14 14 13 12 13 13 13 12 11 10 8
11 11 8 10 12 15 16 10 7 4 4 5 5 2 9 7 6 6 10 14 10 11 15 18 21 22 20 17 13 14 16 17 17 18 17 16 15 15 14 15 15 14 13 13 15 15 17 18 16 14 13 13 10 7 6 6 7 6 6 7 8 9 10 9 5 5 8 8 7 5 5 6 8 8 4 4 7 9 9 10 13 13 14 15 15 16 15 15 15 14 13 13 13 11 9 7 4
9 12 13 16 15 13 11 6 8 10 3 3 6 3 5 8 8 6 10 10 1 0 11 23 29 27 23 19 14 13 15 16 16 16 16 15 15 14 12 12 12 11 12 12 9 8 12 14 14 15 15 14 12 11 6 4 6 4 7 8 8 10 7 5 5 6 7 8 7 5 6 7 8 8 5 8 8 8 9 9 11 13 14 14 15 16 16 16 15 15 14 12 11 10 9 8 7
9 10 14 20 21 14 10 7 7 7 2 6 10 6 7 5 7 9 13 5 14 18 19 27 29 27 24 21 17 15 15 16 16 15 14 14 13 11 9 8 8 7 4 2 3 6 10 13 14 14 13 12 11 9 6 6 8 7 9 9 8 10 7 6 6 7 6 6 7 6 6 7 9 9 7 11 11 10 10 8 9 11 13 14 15 16 17 17 16 15 14 13 12 10 9 10 12
12 10 12 17 21 17 13 9 3 3 6 12 13 7 5 8 9 10 15 7 23 25 25 25 25 25 23 21 19 17 16 15 14 14 13 12 10 8 6 3 2 1 13 16 9 5 7 11 15 14 12 13 11 8 8 10 10 9 10 8 7 6 6 7 6 8 7 7 8 8 9 10 12 11 10 14 15 14 13 11 9 9 11 14 14 15 16 16 16 15 14 14 12 9 9 11 13
14 12 13 15 17 18 16 12 5 4 10 14 12 8 7 14 12 11 17 10 22 26 24 20 19 21 20 19 18 17 16 14 13 13 10 9 8 6 3 2 2 5 16 16 7 4 7 12 14 13 12 14 13 10 11 12 10 9 7 6 7 5 5 6 7 9 8 8 10 10 11 12 12 12 12 14 15 15 15 14 13 12 11 12 13 12 16 16 15 15 12 12 11 9 11 12 13
13 15 16 16 15 14 15 16 13 8 11 12 11 11 10 17 14 11 16 12 16 23 24 20 16 16 17 17 17 16 15 13 12 11 9 7 6 5 4 2 3 3 7 6 3 3 8 12 11 10 10 10 10 9 9 9 8 7 5 5 6 6 7 7 8 8 7 8 10 10 12 12 11 13 14 13 14 14 15 15 14 15 15 15 14 12 16 19 16 15 11 11 12 12 14 15 15
14 17 18 19 17 14 12 15 15 11 12 13 12 12 14 16 10 8 14 14 13 18 22 22 17 13 15 16 15 14 13 12 10 9 8 6 5 6 5 2 0 1 3 1 4 4 7 11 10 9 9 7 9 9 9 9 8 7 7 7 6 6 7 7 7 7 6 7 9 10 10 10 11 13 14 13 12 12 15 16 16 17 16 17 18 15 18 20 18 16 15 13 14 15 15 16 15
17 12 11 17 19 17 14 14 14 13 12 15 15 12 16 14 9 13 14 15 12 16 19 22 22 16 15 15 13 11 10 11 8 8 6 6 6 6 5 3 2 3 3 3 4 5 7 10 10 10 10 8 9 10 10 11 10 10 9 8 7 6 6 6 8 8 8 9 10 11 9 9 10 12 14 13 13 13 13 16 17 18 17 17 19 18 20 20 19 18 19 17 16 16 15 14 14
17 9 7 12 15 16 16 15 14 13 13 17 15 10 14 13 12 21 15 16 15 17 18 19 21 17 16 14 12 9 9 10 7 6 7 5 5 5 4 1 1 3 3 3 4 5 6 9 10 11 11 9 9 11 11 11 11 11 9 8 8 7 6 7 8 8 8 10 11 11 10 9 10 12 14 14 15 14 13 15 17 17 17 18 19 20 20 19 18 19 19 18 17 16 16 16 15
16 11 9 9 10 12 16 17 14 14 13 16 15 7 11 12 14 24 17 17 17 18 20 19 19 18 16 14 13 10 8 9 6 6 8 7 4 3 3 2 2 3 4 4 4 4 5 8 10 11 11 10 10 10 10 9 9 10 10 10 9 8 7 7 8 8 9 11 11 10 11 10 10 11 12 13 15 16 16 18 18 17 18 19 20 20 20 19 16 16 17 19 17 17 18 17 17
11 11 9 8 8 8 15 18 14 14 12 16 16 7 10 11 14 26 19 17 18 19 21 21 20 18 15 12 12 12 8 7 5 5 6 5 3 4 4 4 4 4 4 5 3 4 5 7 9 10 10 9 9 8 8 8 8 9 9 10 9 8 7 7 7 8 10 11 11 11 12 12 11 12 13 13 15 18 19 19 19 19 18 19 19 19 19 19 17 15 16 17 17 18 19 18 17
9 9 9 9 9 9 14 19 17 14 12 19 18 7 10 11 15 24 17 16 18 17 21 25 24 19 16 13 12 11 9 7 5 5 4 4 4 5 6 4 5 5 4 6 4 4 4 6 7 8 8 8 8 7 7 7 8 8 7 7 7 6 6 5 6 8 8 9 10 12 14 14 13 14 14 14 15 19 20 19 19 19 18 19 18 18 18 18 18 16 15 17 17 18 18 19 18
8 9 9 10 10 10 11 17 20 18 14 18 16 9 11 10 17 22 18 18 18 15 18 24 26 21 17 15 14 11 11 11 7 5 4 5 6 6 7 5 7 7 5 4 4 5 6 6 7 9 8 8 8 8 8 8 8 7 6 5 4 5 5 5 6 7 7 8 10 11 14 14 13 14 15 16 16 18 21 21 20 18 19 20 19 19 18 17 18 18 18 18 18 19 18 18 18
8 9 9 11 13 11 10 13 20 20 17 16 14 12 14 11 19 22 21 19 19 16 17 24 27 22 19 17 15 13 14 16 11 8 6 7 7 8 8 6 8 8 6 5 4 6 7 6 7 7 7 7 8 8 8 7 6 5 4 3 4 5 5 6 7 7 7 9 9 10 12 13 12 13 14 15 15 17 20 21 21 19 18 19 19 19 17 18 19 20 22 20 19 19 18 18 18
9 10 8 10 12 12 13 11 17 20 19 15 14 15 19 16 16 20 22 20 20 18 16 26 27 20 20 18 17 16 19 19 14 10 7 7 9 9 8 8 9 9 8 7 6 6 6 5 5 6 6 6 6 7 6 4 3 3 2 2 3 5 5 6 7 7 7 8 9 10 12 12 12 12 12 13 14 16 19 20 21 19 18 18 18 19 18 19 20 21 22 21 20 19 18 18 18
13 13 10 10 12 11 15 13 16 20 17 15 15 16 20 20 15 17 19 19 18 15 12 25 23 17 16 14 17 21 23 21 15 11 9 8 10 11 11 11 11 10 9 9 8 6 5 4 3 5 5 6 5 4 3 2 1 1 1 1 3 5 6 7 7 7 8 8 9 10 11 12 11 11 12 12 13 15 17 19 20 18 19 19 18 19 19 19 21 22 21 20 20 19 18 19 19
15 13 12 13 13 10 15 15 17 19 14 14 16 17 18 16 11 16 18 18 15 12 14 24 21 17 17 19 22 23 23 22 16 13 12 11 11 12 12 12 11 10 9 9 9 7 5 3 2 4 6 5 4 2 2 2 2 2 2 3 4 6 7 7 8 9 10 10 11 12 12 11 10 11 12 12 12 13 16 19 19 18 19 20 19 18 18 19 21 22 21 19 19 20 20 19 19
18 13 11 12 12 11 15 14 19 20 13 13 16 17 16 12 11 14 17 16 12 12 12 20 22 20 20 22 24 23 22 22 18 15 13 11 11 11 11 11 9 8 8 7 7 7 5 3 2 2 4 4 5 5 3 3 4 5 5 6 7 6 7 7 7 8 10 10 11 12 12 11 11 10 11 11 11 12 15 17 18 18 18 19 20 19 19 20 20 21 21 20 19 20 20 20 20
17 13 10 9 10 11 13 14 20 19 10 11 16 16 13 14 12 12 13 11 12 14 11 14 17 18 23 23 23 24 23 21 19 18 14 11 9 8 9 9 8 9 9 7 6 7 6 4 2 3 4 5 5 4 3 2 3 5 7 8 8 7 7 7 6 8 10 11 10 10 12 12 12 11 10 11 11 12 14 16 17 17 17 18 19 20 21 21 20 20 20 20 20 20 21 21 21
13 12 10 9 12 11 10 12 16 17 11 10 15 13 9 11 10 9 13 15 16 13 10 10 16 23 26 24 21 23 23 22 21 19 15 12 10 9 10 11 11 12 11 8 7 6 5 4 4 5 5 5 4 3 2 2 3 4 6 7 6 6 6 6 6 8 10 11 11 10 11 12 11 10 10 10 11 13 14 16 17 17 18 18 18 20 21 21 20 21 20 20 20 21 22 22 21
13 14 13 11 13 15 12 9 10 12 11 11 13 10 6 9 10 9 11 13 13 11 11 12 24 32 28 23 20 20 20 22 21 19 16 14 12 12 13 11 10 11 10 8 7 6 5 5 6 6 6 5 4 3 3 2 1 1 2 2 3 3 3 4 5 7 9 10 11 11 12 12 10 9 9 9 10 12 13 15 17 18 19 19 19 20 20 20 20 20 21 21 21 22 21 20 19
12 15 16 15 12 16 16 12 11 8 9 12 13 8 6 10 12 11 9 8 11 12 13 12 23 26 22 20 19 19 19 20 20 18 17 15 13 13 12 9 8 7 6 6 6 6 5 6 7 7 5 5 4 3 2 2 2 1 1 2 2 2 3 4 6 7 9 11 11 12 12 12 10 9 9 9 10 12 13 14 16 18 19 20 20 20 21 21 21 20 21 21 22 22 20 18 19
9 12 16 20 15 17 17 15 14 8 8 12 15 9 6 10 13 14 12 11 13 13 12 14 21 20 19 19 18 19 20 21 20 18 17 15 12 12 11 8 6 6 6 7 8 6 5 6 6 5 4 4 3 2 2 3 2 2 2 2 1 1 4 6 7 8 9 11 12 12 12 11 11 10 9 10 11 13 14 14 16 18 19 19 20 20 22 22 22 22 21 22 23 23 22 21 20
8 10 16 20 18 17 16 14 13 8 7 10 15 13 7 7 12 15 16 14 15 14 12 13 20 20 18 18 19 19 19 20 20 19 17 15 12 11 10 10 9 8 7 7 7 7 5 5 3 3 3 3 3 3 3 3 3 2 2 2 2 3 4 6 8 9 9 10 11 13 13 12 13 13 12 11 12 14 15 16 17 19 20 20 20 20 21 21 22 23 23 23 24 25 26 24 23
10 12 16 17 18 18 16 12 11 8 7 8 14 16 9 6 11 14 17 16 15 16 12 11 19 21 18 18 19 20 19 19 18 18 17 15 13 11 10 11 11 10 8 6 6 6 5 5 5 5 4 4 5 5 5 4 5 5 4 3 3 4 4 5 7 8 9 10 11 12 14 14 14 14 13 13 13 15 16 17 18 19 21 21 20 20 20 20 22 24 25 25 25 26 27 26 25
13 15 14 14 17 17 15 11 10 9 8 9 14 16 10 6 9 11 13 15 14 14 12 13 18 22 21 19 19 20 19 18 16 17 18 15 14 12 10 11 11 10 10 8 8 8 7 6 5 3 3 3 3 4 4 4 5 6 5 5 5 5 5 7 9 9 11 12 13 13 14 14 14 15 15 15 15 15 16 18 18 20 21 21 21 21 21 22 23 24 26 26 24 24 25 26 26
14 16 13 13 14 12 11 9 9 8 7 11 16 18 13 8 7 9 10 11 13 13 11 13 17 22 22 19 19 18 16 16 15 16 17 16 13 11 11 11 10 9 8 8 8 8 8 7 5 3 1 2 2 2 1 2 3 4 6 7 8 8 8 10 11 12 13 13 14 15 15 14 15 16 17 17 17 17 18 18 19 20 21 21 22 22 22 23 24 25 26 26 25 24 24 25 26
14 13 11 10 9 8 8 7 8 7 7 12 17 19 17 10 5 8 11 10 12 15 15 15 16 19 21 19 19 17 16 15 14 14 14 14 13 11 10 9 8 6 6 7 6 6 6 6 5 2 1 3 4 5 6 6 5 5 6 7 8 9 10 11 11 13 14 13 14 15 16 16 17 18 19 19 19 20 20 20 19 20 20 20 22 23 23 23 24 25 26 26 26 25 25 25 26
13 11 9 10 8 6 8 7 8 6 8 13 17 18 16 6 4 2 6 10 13 17 18 18 19 18 19 19 18 17 16 14 13 13 13 12 12 11 11 9 7 6 5 5 4 3 3 3 3 2 3 3 3 4 6 6 5 6 7 7 9 10 11 11 11 12 12 13 15 15 16 18 18 19 21 21 20 21 23 23 21 20 21 21 23 23 23 22 23 25 26 27 26 26 26 26 26
13 12 10 10 9 7 7 8 8 8 10 14 18 16 9 5 7 9 10 17 19 21 22 21 21 19 18 17 18 17 15 13 13 12 11 11 10 10 10 9 7 6 6 5 4 4 3 3 3 4 4 5 5 5 5 4 4 5 6 7 9 10 10 10 10 11 11 11 13 15 16 17 19 21 23 23 23 23 24 24 24 23 23 24 24 24 23 22 23 24 26 27 26 25 26 26 26
13 12 11 11 9 8 7 7 8 9 9 12 15 10 3 6 5 9 15 21 23 24 23 22 21 19 18 17 17 15 14 13 13 12 11 11 11 10 9 8 7 6 5 4 4 3 4 3 3 3 3 4 5 6 6 5 5 5 5 7 9 9 10 10 10 11 12 12 12 13 15 16 18 21 22 24 25 26 26 26 26 25 24 25 26 25 24 23 23 24 26 27 25 24 26 26 26
11 12 12 10 10 8 5 6 7 5 6 8 7 1 4 7 8 10 15 18 22 22 21 21 20 18 17 17 15 14 14 14 13 13 12 12 11 9 9 8 7 7 6 5 4 4 3 3 3 4 3 3 3 5 5 6 6 6 7 8 9 10 11 11 11 11 12 13 14 14 15 16 18 19 21 23 24 26 27 28 28 25 23 25 25 25 26 24 24 25 27 27 24 23 26 27 26
8 11 12 10 13 10 4 7 7 2 4 5 4 5 5 7 7 8 12 13 15 17 17 19 18 17 17 16 14 14 14 14 13 13 12 11 10 9 9 8 8 7 7 6 6 5 5 4 5 6 6 6 5 5 4 6 8 9 10 10 10 12 12 11 12 12 12 14 14 14 14 16 18 19 21 22 22 23 24 27 29 28 25 24 23 25 26 25 24 25 26 27 25 23 25 27 26
9 10 12 11 13 11 5 6 7 4 6 5 8 10 9 7 4 6 11 12 12 13 14 17 17 16 16 14 13 14 14 13 12 12 11 11 10 9 9 8 8 7 7 7 7 7 7 7 7 7 7 7 6 7 6 7 7 8 9 11 12 12 11 10 11 13 13 14 15 15 15 16 18 20 21 22 23 23 23 24 27 28 28 26 25 25 26 26 26 26 26 26 25 24 24 25 26
14 10 12 10 8 9 7 5 7 7 7 6 8 13 10 7 7 11 15 14 14 14 13 14 14 14 14 14 14 14 13 12 11 11 10 10 9 9 8 8 7 8 8 7 7 8 8 9 9 8 9 8 9 9 8 7 7 7 9 11 12 12 12 12 12 12 13 15 16 16 17 18 19 21 22 22 23 23 23 23 24 26 26 26 26 25 25 26 26 27 27 26 24 23 23 24 25
16 12 12 10 6 7 7 6 6 7 7 7 6 8 6 5 9 16 18 17 17 16 13 13 13 15 15 14 14 13 12 11 10 10 9 9 9 9 8 8 8 8 9 8 9 10 9 9 8 8 9 9 9 7 8 9 8 8 10 12 13 12 12 14 14 14 14 15 15 16 18 19 20 21 22 23 23 22 22 23 24 25 25 25 25 24 24 26 27 29 28 25 23 23 23 24 24
14 11 11 11 7 6 8 8 7 7 8 7 5 4 2 2 7 17 20 19 19 17 14 13 15 17 15 15 15 13 11 11 10 9 9 9 9 9 9 8 8 9 9 9 9 9 9 9 8 9 9 9 9 7 8 10 11 12 14 14 14 13 13 14 16 16 14 13 13 14 15 18 20 21 22 23 23 21 20 21 23 25 24 24 23 22 23 25 27 29 28 24 23 23 22 22 22
13 11 11 12 10 8 8 8 8 8 7 6 6 4 3 4 2 13 17 16 17 19 17 16 18 19 17 16 15 14 12 11 10 10 10 10 10 10 9 9 9 9 10 10 9 8 9 10 10 10 10 9 9 9 12 15 15 14 15 14 15 15 14 15 16 16 15 14 15 15 15 16 19 20 21 22 23 22 20 19 21 22 22 22 21 20 21 22 24 26 27 26 25 23 21 20 20
Wind_Direction
317 345 3 4 353 338 301 259 258 243 231 262 265 271 269 261 271 273 268 294 320 82 58 21 349 337 326 71 88 72 49 45 43 50 98 121 132 137 152 165 170 186 193 185 169 160 161 156 151 150 154 156 158 160 162 161 158 156 149 142 127 130 131 127 119 111 106 102 102 102 103 106 111 115 116 114 111 111 111 112 112 112 111 109 107 107 109 107 105 101 100 98 96 93 89 91 94
293 308 339 347 346 307 277 248 248 272 257 263 264 261 264 260 250 256 271 340 65 64 39 356 15 9 305 112 97 78 58 62 72 82 105 124 128 135 146 136 140 174 182 175 167 163 161 157 155 153 156 159 163 165 166 165 162 161 155 148 136 137 138 132 124 118 112 106 104 104 106 107 111 116 119 117 116 116 116 116 116 116 113 110 108 109 108 106 105 102 99 95 94 91 88 88 91
313 305 281 300 290 251 272 272 250 269 271 269 272 269 270 273 287 283 40 60 59 45 32 334 291 209 231 166 97 86 85 76 84 98 111 126 126 133 147 143 152 163 160 164 165 167 163 157 157 156 159 162 164 168 169 168 167 165 162 155 144 145 144 137 130 125 119 111 107 107 109 110 112 117 123 122 120 121 120 119 119 120 117 114 113 112 110 108 107 103 101 98 96 92 88 86 90
325 26 232 269 266 243 250 257 248 255 262 267 276 278 285 316 334 24 67 50 37 32 343 278 216 152 23 65 95 94 100 89 93 110 117 132 132 134 144 146 159 166 156 161 164 170 166 157 158 158 160 163 166 171 172 171 170 168 168 159 150 152 150 142 136 131 126 118 111 110 111 112 113 118 124 128 127 127 127 125 124 123 122 120 117 114 113 110 106 104 100 98 95 91 90 89 92
300 4 246 255 261 264 251 243 247 245 250 260 263 271 282 317 317 72 81 31 34 13 236 253 219 121 58 54 82 88 96 100 99 108 115 127 135 143 154 149 151 160 155 154 162 172 167 159 159 160 161 165 169 173 176 174 171 171 170 163 156 157 154 147 142 137 132 124 117 112 111 113 116 119 123 131 135 133 131 129 129 129 126 122 117 114 112 111 109 106 103 99 96 93 92 93 97
301 299 240 239 259 288 281 250 244 247 248 257 265 275 280 298 353 80 71 32 141 245 196 239 240 108 81 68 73 68 82 111 109 108 117 127 141 152 165 159 148 146 147 155 174 175 165 163 160 159 163 166 172 175 179 176 173 174 171 165 164 162 157 151 146 142 137 130 123 116 115 114 115 119 122 130 134 135 136 134 131 129 127 123 119 116 114 115 113 108 105 101 98 96 96 98 103
269 275 230 223 251 262 257 248 250 255 252 256 259 258 269 292 59 50 295 268 152 193 190 231 209 106 107 112 80 55 59 107 122 119 127 136 145 150 159 154 145 146 150 165 190 180 166 166 162 162 166 169 175 178 180 177 175 175 172 169 170 165 159 153 150 147 142 135 128 122 119 116 115 118 123 128 129 131 135 135 132 130 129 127 124 120 119 118 113 109 105 102 100 100 101 103 107
247 260 244 230 240 233 233 247 250 253 256 260 261 259 277 24 83 249 266 253 163 175 182 219 219 163 122 113 94 67 66 93 120 125 136 143 147 150 155 146 144 151 158 176 199 186 172 168 166 166 168 173 177 179 179 178 178 176 173 173 172 166 160 156 153 151 146 139 133 129 124 120 118 120 125 129 128 126 129 131 131 132 131 128 126 123 123 118 113 110 107 105 105 106 106 108 109
235 242 250 251 247 244 240 246 244 246 252 251 260 264 273 267 194 249 278 291 266 218 191 190 221 195 104 97 99 97 87 105 121 126 139 148 154 155 155 150 150 153 163 184 198 185 176 170 169 170 172 175 176 178 180 179 178 177 175 174 172 166 162 157 155 156 149 144 140 136 133 126 122 122 126 130 129 128 128 132 133 133 132 129 129 128 125 118 114 112 111 110 110 112 111 110 112
229 226 238 254 240 254 251 251 252 246 247 243 249 252 254 246 237 247 265 274 245 232 206 181 205 143 110 103 105 108 109 122 123 123 140 152 155 154 153 154 156 159 174 192 197 186 179 173 171 172 175 176 177 178 178 179 178 176 175 173 168 167 164 158 157 159 153 149 148 144 141 134 129 126 128 131 132 133 132 134 136 136 134 133 135 132 125 118 115 113 115 117 116 117 116 115 116
232 217 228 255 242 249 249 252 255 249 248 242 241 237 210 144 246 248 241 256 230 218 221 194 201 132 109 100 105 118 122 124 125 129 146 149 149 154 153 155 166 175 186 196 195 188 181 176 173 174 176 175 176 176 177 178 177 176 172 169 167 167 163 158 159 160 155 153 153 151 148 144 139 134 134 137 137 138 137 137 140 141 139 139 139 134 126 120 117 117 121 123 122 121 121 120 118
238 222 215 238 245 247 254 258 255 258 256 242 233 223 206 193 225 245 229 241 228 221 213 187 208 148 113 105 115 128 131 127 135 142 149 146 150 155 155 157 174 189 193 195 192 185 182 180 176 175 177 176 175 173 176 178 176 175 169 167 164 164 161 161 164 161 157 157 157 156 155 153 150 147 143 144 144 144 142 142 146 147 146 145 142 136 131 126 121 122 128 129 129 128 125 123 121
232 244 226 230 241 247 256 263 264 265 266 264 285 190 196 195 208 240 233 235 231 225 201 185 208 156 109 109 123 135 135 137 148 151 147 148 158 156 157 163 176 191 190 195 188 182 184 184 180 177 176 174 174 173 175 177 178 174 167 166 163 164 163 163 165 161 159 157 158 161 162 162 161 160 156 154 153 151 148 148 151 154 153 151 147 142 137 133 128 128 132 135 134 132 129 127 125
229 243 246 252 245 250 254 257 266 262 266 279 50 111 140 165 199 241 240 238 220 218 212 176 155 117 112 112 127 143 139 146 154 151 149 154 161 157 161 168 179 191 190 196 183 182 184 184 184 179 177 173 172 173 177 180 178 174 168 168 167 168 165 163 164 160 158 153 156 164 166 169 171 171 169 170 166 159 154 154 157 160 161 158 154 150 145 140 135 134 134 136 136 134 132 127 124
234 243 247 263 257 258 253 247 259 263 278 276 118 124 146 183 220 241 238 239 218 214 211 159 120 110 144 149 147 152 147 152 155 149 153 156 159 160 165 172 181 185 189 193 183 187 186 183 184 179 178 174 172 173 175 177 175 176 172 170 170 169 164 160 158 155 155 153 156 163 168 173 177 183 183 184 185 172 161 159 163 166 167 165 163 158 154 148 141 139 136 137 138 135 132 128 126
232 247 247 248 253 257 255 251 248 257 279 82 107 182 175 208 224 238 237 245 227 165 179 145 91 64 107 170 157 153 150 152 154 151 153 156 161 162 166 177 181 180 188 194 190 191 187 185 183 179 179 174 173 173 172 171 170 176 172 169 167 163 159 154 150 149 153 157 162 166 170 176 180 190 195 196 198 188 171 166 168 170 172 170 169 167 161 156 149 145 141 139 140 138 134 131 129
227 242 251 242 243 247 250 254 241 247 243 113 115 211 200 236 213 222 227 240 235 139 138 95 77 72 72 106 145 151 149 151 154 153 155 158 162 164 169 180 181 182 187 190 193 186 183 189 183 177 177 174 173 171 171 168 166 171 168 162 159 157 151 143 139 141 147 155 163 169 176 183 186 193 203 209 207 203 189 175 173 175 176 175 176 175 168 162 156 151 146 144 143 141 138 134 132
227 223 238 244 237 240 243 254 261 274 257 101 38 228 215 232 184 202 220 226 224 154 128 87 78 81 86 102 128 141 145 150 154 154 160 164 167 168 172 182 184 187 186 185 188 178 179 191 185 175 174 172 172 170 172 169 164 164 161 156 153 150 141 133 133 137 144 149 155 165 182 195 191 191 213 223 216 217 209 186 178 180 181 181 183 182 176 168 162 159 152 148 146 146 143 138 133
229 227 229 237 238 244 240 252 268 334 344 75 40 290 245 242 177 186 204 214 210 161 137 117 96 91 99 107 119 131 141 149 154 159 166 169 174 175 177 185 187 190 188 185 186 184 185 188 173 165 171 169 167 171 173 170 165 161 160 155 151 146 136 131 128 128 134 140 145 146 146 36 16 285 306 272 236 231 226 212 191 185 186 187 189 188 184 177 170 169 163 157 152 150 146 137 133
222 231 232 232 238 251 248 258 277 30 8 8 33 238 235 247 195 182 191 214 207 177 164 148 124 111 113 117 125 135 142 147 156 166 172 176 181 181 182 185 191 197 194 190 189 186 183 176 156 148 161 161 158 167 170 172 170 162 155 148 144 137 128 122 117 132 147 139 144 149 156 152 200 236 270 277 268 262 246 238 220 201 196 192 193 194 192 186 181 180 176 169 161 159 157 141 132
215 223 238 240 232 244 252 271 273 282 355 333 347 248 222 229 221 197 202 212 204 201 192 160 138 135 134 135 142 147 149 153 163 171 176 185 187 187 190 190 198 202 198 198 194 187 174 161 148 143 151 150 148 155 154 169 174 161 151 138 128 124 118 122 136 189 174 157 168 182 191 190 204 218 229 251 274 290 288 265 244 228 217 205 199 199 200 196 190 190 187 178 169 170 169 147 144
225 224 236 250 245 244 258 293 272 257 209 249 291 270 250 239 216 220 227 216 120 7 180 154 139 143 148 145 152 160 162 163 168 176 181 188 191 194 198 196 204 207 207 207 189 161 152 149 151 153 150 150 154 155 145 167 181 179 175 161 143 140 136 155 189 206 189 182 193 202 201 197 205 207 234 251 253 277 296 294 269 249 238 226 215 209 206 204 200 197 196 187 173 166 158 153 191
235 233 231 245 255 262 276 284 257 255 204 225 250 280 339 290 221 233 242 193 75 68 103 127 133 142 147 146 157 167 170 172 174 181 182 188 195 198 202 208 218 213 191 143 88 96 126 143 160 161 148 154 166 157 156 190 198 194 187 179 163 161 169 185 189 198 207 212 210 214 212 213 218 216 231 236 233 245 256 280 284 266 257 246 232 226 218 211 205 202 200 193 180 172 166 171 196
227 242 237 239 251 258 268 277 250 233 248 245 252 283 319 251 231 229 235 154 95 93 103 119 131 139 141 147 160 164 171 177 178 183 184 188 193 198 207 227 242 31 47 47 44 72 127 157 170 170 158 166 176 174 186 199 201 195 189 190 191 188 189 192 191 203 218 222 221 223 223 229 235 236 230 224 229 238 233 233 242 246 263 264 249 238 234 223 209 205 203 197 192 186 187 195 205
224 237 248 245 246 244 245 254 243 217 234 237 251 270 248 236 241 232 225 171 111 112 113 118 128 136 141 150 159 165 173 176 180 183 182 183 187 192 186 58 52 37 38 38 31 76 146 171 173 171 165 171 175 175 185 188 187 185 182 189 201 199 192 202 204 209 216 219 228 233 234 241 245 248 243 234 235 233 222 215 218 218 227 250 257 242 237 238 219 208 207 199 200 200 194 205 214
222 224 240 250 252 242 235 237 234 231 232 224 231 244 239 234 241 253 231 186 131 124 121 123 127 135 141 148 161 168 170 173 179 177 175 178 177 170 151 54 35 31 22 32 40 99 151 167 166 160 158 169 169 157 167 175 170 174 176 175 185 181 179 195 202 207 215 219 234 241 241 249 254 253 250 248 243 232 225 220 222 226 219 222 238 231 228 246 238 209 210 210 207 217 209 209 220
233 224 228 241 252 250 237 239 234 229 234 227 226 229 235 228 214 246 222 177 150 136 130 136 139 146 148 148 160 165 167 169 168 169 175 162 152 166 167 210 327 78 269 233 77 84 138 158 162 155 147 156 161 151 161 177 177 189 193 176 177 184 179 183 194 212 225 231 244 245 246 255 258 252 248 253 247 233 235 236 230 228 222 212 220 220 217 241 249 213 204 213 213 222 218 212 218
247 238 231 237 245 248 237 236 230 225 229 225 230 225 228 219 191 232 205 153 167 155 139 143 146 154 148 144 154 160 164 161 163 172 166 138 153 180 168 201 216 142 193 173 97 85 121 151 161 157 152 155 163 163 176 187 189 195 194 182 188 195 190 193 200 215 228 237 248 248 251 258 257 252 250 259 255 244 244 240 230 225 225 217 217 218 214 225 239 223 203 206 215 219 219 215 213
248 237 240 243 239 242 237 232 219 222 223 210 222 230 224 210 200 232 199 146 180 168 150 146 140 145 140 140 150 151 156 155 163 168 160 162 166 174 167 188 181 109 108 130 130 113 122 152 164 167 167 169 172 176 186 192 191 191 187 183 192 194 206 220 216 222 232 236 242 243 247 253 254 251 255 262 253 246 240 229 224 223 226 225 221 219 218 219 229 233 212 202 213 216 216 214 207
251 235 240 248 239 233 228 231 218 219 218 195 205 227 225 202 197 228 204 157 184 175 159 145 132 138 136 139 144 138 150 154 160 160 161 178 158 138 175 170 122 106 72 85 143 152 149 162 171 176 177 182 186 185 189 195 194 190 186 188 196 198 206 222 223 227 238 245 249 248 252 257 256 254 260 260 247 242 236 229 228 225 224 226 224 219 219 218 223 238 220 205 214 217 216 216 209
244 237 239 238 248 237 213 217 212 216 214 196 203 219 226 195 193 226 208 164 188 180 156 139 131 137 135 142 146 141 150 145 139 151 158 168 138 120 137 129 136 145 87 82 142 167 164 169 171 176 182 191 194 191 195 203 202 195 193 195 198 197 199 212 223 229 238 253 259 258 263 266 260 260 264 257 246 245 238 231 229 225 224 225 223 221 218 215 218 232 221 211 222 224 220 218 213
228 226 231 224 236 249 216 202 201 209 207 206 208 214 230 195 196 220 191 164 193 183 157 142 132 139 150 158 153 145 141 131 119 131 147 143 128 139 155 133 117 147 123 90 114 135 147 168 170 169 178 191 191 194 201 205 208 204 202 206 210 212 215 220 231 243 248 259 261 261 267 268 264 264 263 254 246 245 237 230 230 225 225 227 228 227 223 219 218 221 219 215 221 228 227 222 219
221 218 229 228 221 244 233 191 191 204 206 211 206 215 238 191 195 204 168 171 193 188 177 150 136 149 158 147 148 155 138 129 131 126 127 131 129 133 160 158 112 132 150 116 101 111 125 146 163 168 173 184 190 198 202 203 210 211 209 221 242 252 260 252 244 250 253 259 262 265 270 269 266 263 259 253 244 241 237 231 232 230 225 229 235 232 224 223 221 217 220 219 216 221 227 224 224
217 214 221 234 224 229 237 189 180 198 210 208 195 220 243 202 193 186 165 183 187 193 194 152 146 159 151 141 152 160 137 130 133 128 121 123 131 130 139 148 124 128 144 139 108 107 122 128 149 171 179 184 191 200 200 203 213 217 224 241 265 277 276 263 258 259 254 256 262 270 273 270 267 260 253 249 240 237 236 232 231 230 227 229 233 229 222 224 225 221 223 224 220 220 222 221 224
216 214 212 233 233 222 234 209 170 190 211 202 189 219 241 230 201 171 168 188 184 202 196 147 149 154 144 158 167 146 125 125 128 124 119 112 123 131 125 128 135 134 131 131 123 118 130 127 149 179 189 186 186 194 196 202 216 225 245 254 267 274 268 263 268 268 262 263 267 269 270 270 268 259 252 249 243 234 231 231 231 230 230 230 228 226 224 226 227 226 227 225 224 224 222 219 222
220 215 211 222 234 222 232 223 168 183 206 198 197 216 237 240 210 165 169 187 189 203 163 131 144 142 123 134 142 127 117 122 126 120 112 108 126 135 127 127 135 136 136 140 138 131 131 127 159 184 192 190 185 187 178 152 202 261 267 245 254 262 267 274 281 279 274 272 271 269 267 267 264 257 254 254 250 239 230 228 231 233 236 233 228 226 226 229 231 232 232 229 228 227 224 220 220
237 222 213 219 232 224 231 222 167 176 202 200 207 220 234 233 181 154 171 185 194 199 147 128 139 141 116 103 111 114 115 123 127 118 109 114 134 137 131 132 131 133 142 146 148 153 145 116 137 182 190 182 159 132 98 119 170 225 222 224 242 257 269 277 284 282 277 272 270 268 267 265 259 254 256 257 253 241 232 229 232 236 237 234 231 229 228 230 233 235 234 233 233 231 229 225 221
248 239 221 217 228 227 230 213 161 169 204 202 207 225 229 207 159 165 188 190 194 206 174 138 138 145 133 118 116 114 114 123 125 120 119 123 131 128 125 128 125 127 129 131 146 151 135 111 114 159 161 137 123 127 133 163 204 231 237 237 236 247 262 269 278 280 276 276 274 271 269 266 260 258 258 256 250 238 231 231 233 236 237 236 235 231 230 230 230 232 232 233 234 234 234 231 226
245 249 236 217 226 231 229 211 169 166 200 203 199 223 222 187 174 180 187 194 200 206 193 151 143 146 139 129 125 123 121 126 126 124 128 129 120 113 113 110 107 111 110 111 120 121 126 146 127 94 111 109 114 140 168 214 246 261 260 252 242 236 245 257 269 274 277 280 283 280 273 268 263 260 259 255 250 243 237 234 235 239 241 240 238 234 232 232 230 230 230 231 235 237 237 233 229
240 246 245 224 213 219 225 218 187 167 185 205 195 215 218 172 166 176 182 198 200 186 179 152 105 107 126 127 125 130 130 129 128 128 130 129 119 109 105 102 107 113 116 117 114 117 133 138 113 102 111 106 100 134 204 244 258 268 266 265 259 240 235 251 265 272 280 284 289 291 282 277 272 262 260 257 251 248 243 239 239 242 243 242 241 238 236 235 234 233 232 231 234 239 239 235 232
234 236 249 240 205 211 224 206 180 166 182 213 205 200 199 157 152 175 188 189 177 154 170 152 99 102 124 129 129 133 131 130 129 130 133 132 127 119 115 123 136 133 132 135 122 119 121 110 106 102 106 111 114 134 165 190 201 259 274 305 329 306 271 274 269 269 282 287 293 300 294 289 282 265 259 255 248 246 246 246 245 244 244 243 243 242 241 240 238 237 236 235 235 239 240 236 233
230 228 241 251 217 213 221 175 153 175 190 213 218 197 180 173 170 181 177 163 165 165 181 151 100 104 121 122 128 128 125 130 127 127 136 137 129 119 116 128 147 144 138 136 118 113 117 108 104 100 104 116 112 101 97 90 67 17 3 52 33 334 310 298 281 274 286 292 292 295 293 291 286 270 257 252 249 251 254 255 253 251 249 246 246 246 245 243 240 239 239 238 236 236 235 231 230
228 216 227 249 240 220 217 170 158 200 198 206 221 214 186 176 181 186 174 172 179 175 179 147 106 104 118 122 129 126 124 129 125 127 135 134 122 115 117 116 115 106 96 105 106 105 111 109 113 122 124 112 99 77 55 62 47 4 1 21 26 282 278 278 273 270 284 295 294 289 285 285 286 277 259 250 250 254 259 258 258 259 256 252 250 250 249 245 242 241 239 239 237 234 232 229 229
224 207 216 241 246 232 219 177 167 208 203 207 221 220 213 180 185 187 175 182 182 169 179 155 120 111 111 116 124 122 121 121 121 125 125 122 117 112 114 106 100 98 89 95 104 102 104 101 97 100 93 74 46 26 33 36 11 355 358 346 325 297 282 281 282 280 284 293 293 289 286 284 285 282 270 255 249 251 256 259 259 261 261 260 256 253 252 248 245 244 241 240 238 233 231 230 230
225 213 210 229 242 246 242 203 175 188 195 217 218 213 228 206 184 181 176 185 183 168 167 138 118 114 109 114 120 116 114 112 114 121 118 116 117 114 114 112 113 118 117 114 108 101 93 76 51 42 46 31 13 13 21 13 354 352 351 334 313 296 281 281 286 285 283 287 291 290 288 287 285 283 278 267 255 251 255 260 261 261 263 264 261 257 255 251 249 247 243 241 238 233 232 230 229
222 225 211 219 234 244 256 238 189 178 193 223 216 206 224 224 185 183 183 185 182 169 151 120 117 118 113 116 117 109 108 107 107 116 121 119 118 119 127 129 128 130 133 137 132 125 118 105 87 66 52 38 18 6 11 355 335 335 330 315 304 296 289 283 279 280 280 281 288 291 288 285 283 283 282 276 267 259 259 260 259 259 261 264 264 260 256 255 252 248 245 243 238 233 234 232 229
215 236 223 214 230 238 261 255 206 192 200 221 218 205 213 228 197 182 185 186 180 163 133 119 119 116 113 113 111 106 105 105 103 108 114 117 116 121 131 136 137 137 138 144 146 147 142 133 119 116 161 182 209 228 227 262 279 294 296 295 295 296 295 291 286 286 285 282 284 289 287 283 282 280 278 277 274 269 263 262 261 260 258 261 263 262 260 257 254 249 243 241 236 233 236 236 231
205 238 229 205 218 235 253 236 196 199 205 216 218 205 204 216 212 186 183 178 163 146 130 127 122 114 114 115 111 110 109 108 106 104 107 109 108 108 113 121 131 140 145 155 168 178 170 164 156 145 240 237 230 225 220 224 232 245 261 275 282 284 284 284 287 290 291 289 284 284 283 280 278 278 277 276 275 273 271 267 266 263 259 261 264 262 260 258 255 249 241 237 234 233 235 236 233
204 232 228 205 201 217 240 212 185 204 213 216 219 209 201 195 3 354 153 124 108 117 125 129 125 116 115 115 111 111 112 111 110 107 106 106 102 101 101 104 110 113 118 134 147 148 147 158 143 78 353 302 273 257 246 243 241 244 252 262 270 276 277 277 285 293 294 293 289 285 283 280 278 280 282 280 276 274 272 269 267 265 265 266 266 263 261 257 252 247 241 236 234 234 234 232 230
205 222 218 207 197 197 222 206 192 209 213 216 217 210 189 129 36 27 91 106 102 111 122 128 124 119 117 113 108 107 109 109 107 105 103 99 99 103 105 105 103 98 98 100 101 104 99 76 69 53 5 337 331 329 320 311 291 277 277 277 277 280 279 277 282 288 287 288 293 294 291 287 283 280 280 280 278 276 274 271 270 268 268 267 264 262 264 260 254 250 243 237 235 235 232 226 224
204 216 214 211 204 200 214 211 206 211 214 225 225 216 153 119 92 59 87 103 108 113 121 123 119 116 114 107 104 104 105 105 104 103 102 101 102 104 105 100 91 87 83 77 75 78 75 66 62 50 14 355 353 348 340 320 295 287 287 286 289 292 288 283 279 280 279 277 280 287 290 291 288 284 282 281 279 278 277 275 271 267 264 263 260 260 263 263 259 253 245 239 235 231 226 219 219
203 212 213 209 208 205 203 215 224 224 225 231 226 223 63 97 101 85 90 99 107 114 120 120 116 115 112 107 109 112 110 110 110 109 105 102 100 95 91 86 78 74 66 57 56 58 59 61 59 42 9 4 14 356 334 321 322 328 319 309 305 299 295 294 291 286 285 285 284 284 285 286 287 288 288 287 283 280 277 276 275 274 268 263 262 264 265 263 261 256 248 242 235 226 223 220 219
198 210 210 205 212 212 187 206 227 263 245 217 135 97 102 107 95 100 107 108 113 119 121 119 118 117 114 112 118 119 117 117 115 109 101 95 91 85 80 73 67 64 55 48 45 37 34 40 44 33 18 18 11 344 334 350 353 348 331 316 304 295 295 303 306 301 299 300 300 296 291 287 289 290 290 292 290 285 280 277 279 281 278 272 269 269 268 264 263 260 253 246 236 225 223 222 221
203 204 201 202 213 217 200 199 211 217 234 212 129 131 151 147 138 141 136 131 129 128 125 123 121 119 115 116 122 121 119 117 109 101 92 85 81 76 74 68 62 62 57 51 48 38 31 30 28 24 20 12 357 349 359 5 346 329 314 302 298 302 309 312 308 308 310 308 304 299 295 293 293 292 292 294 293 291 289 284 280 279 279 278 276 274 273 270 266 263 257 248 239 229 225 222 220
214 200 198 209 216 215 208 203 205 203 221 218 147 144 164 171 159 159 157 152 144 137 131 127 124 122 120 124 127 122 118 114 104 97 89 81 78 75 75 69 60 60 57 48 43 39 35 29 23 19 15 7 3 0 353 336 311 300 303 304 309 323 331 327 317 315 315 312 308 299 293 293 294 294 295 295 294 295 296 292 285 281 279 279 278 276 275 272 269 266 258 248 239 232 226 222 218
212 199 198 216 227 217 214 216 213 205 213 218 167 151 176 179 163 166 165 159 152 145 140 136 132 130 129 131 129 124 121 114 103 97 89 85 85 80 76 70 60 58 56 48 39 36 34 28 23 21 17 8 0 352 341 334 327 324 328 330 335 340 340 332 325 321 313 309 311 307 300 296 294 294 296 296 295 296 298 296 289 285 282 280 279 276 276 277 274 268 258 249 243 237 227 219 216
204 206 198 204 217 219 219 219 216 217 215 204 184 170 155 114 168 172 162 155 153 147 143 138 133 133 133 133 130 126 120 109 103 103 98 93 90 83 77 72 65 59 57 54 44 36 30 25 23 24 20 8 354 350 357 359 356 348 344 344 344 341 337 329 326 327 320 307 306 306 303 299 297 297 296 296 297 298 300 297 291 288 285 283 282 279 280 281 276 269 263 254 250 244 231 221 219
191 212 205 195 201 208 213 211 209 224 225 212 203 170 95 25 180 167 154 150 151 146 142 137 134 135 135 133 129 121 115 112 113 111 104 96 90 83 77 71 66 60 58 59 49 38 33 27 24 23 17 6 359 10 21 14 2 351 346 345 339 334 334 331 328 329 325 316 312 305 297 294 294 298 299 298 299 300 301 299 293 291 287 283 283 282 282 285 281 275 270 263 257 248 236 227 225